DW9750 Weather Reports


time (UTC)temp
F
wind
direction
speed
knots
gust
knots
rain 1hr
in
rain 24hr
in
rain mn
in
humidity
%
barometer
mb
20260505200049 83 229 2.6 8.7 0.00 0.00 0.00 68 1005.5
20260505194546 81 294 4.3 7.8 0.00 0.00 0.00 71 1005.8
20260505193041 81 244 3.5 7.8 0.00 0.00 0.00 73 1005.9
20260505191541 81 218 2.6 6.1 0.00 0.00 0.00 72 1006.0
20260505190039 80 195 3.5 7.8 0.00 0.00 0.00 73 1006.3
20260505184533 79 265 4.3 7.8 0.00 0.00 0.00 75 1006.7
20260505183035 78 212 3.5 9.6 0.00 0.00 0.00 76 1006.7
20260505181529 78 237 2.6 7.0 0.00 0.00 0.00 77 1006.9
20260505180025 77 256 3.5 7.0 0.00 0.00 0.00 78 1007.0
20260505174521 75 257 3.5 8.7 0.00 0.00 0.00 82 1007.3
20260505173020 75 272 4.3 8.7 0.00 0.00 0.00 82 1007.3
20260505171522 74 240 3.5 11.3 0.00 0.00 0.00 84 1007.4
20260505170017 73 220 3.5 7.8 0.00 0.00 0.00 85 1007.5
20260505164509 72 246 2.6 7.8 0.00 0.00 0.00 87 1007.4
20260505163008 72 241 3.5 7.0 0.00 0.00 0.00 87 1007.4
20260505161502 71 242 3.5 9.6 0.00 0.00 0.00 87 1007.3
20260505153101 70 236 2.6 9.6 0.00 0.00 0.00 90 1007.3
20260505151556 70 255 3.5 13.0 0.00 0.00 0.00 90 1007.4
20260505130105 67 268 3.5 8.7 0.00 0.00 0.00 93 1006.8
20260505124552 68 211 4.3 8.7 0.00 0.00 0.00 93 1006.7
20260505123045 68 218 2.6 7.8 0.00 0.00 0.00 92 1006.5
20260505121543 68 258 3.5 10.4 0.00 0.00 0.00 92 1006.4
20260505120043 68 206 3.5 7.8 0.00 0.00 0.00 91 1006.3
20260505114537 68 221 2.6 7.0 0.00 0.00 0.00 91 1006.0
20260505113036 68 187 3.5 8.7 0.00 0.00 0.00 91 1006.0
20260505111539 68 217 2.6 6.1 0.00 0.00 0.00 91 1005.9
20260505101527 69 194 1.7 7.0 0.00 0.00 0.00 90 1006.1
20260505100030 69 214 0.9 10.4 0.00 0.00 0.00 89 1006.2
20260505094524 69 206 2.6 11.3 0.00 0.00 0.00 89 1006.3
20260505093022 69 232 2.6 8.7 0.00 0.00 0.00 89 1006.4
20260505091520 69 246 1.7 7.0 0.00 0.00 0.00 89 1006.3
20260505090021 69 234 2.6 10.4 0.00 0.00 0.00 89 1006.4
20260505084521 69 168 3.5 6.1 0.00 0.00 0.00 89 1006.5
20260505083018 69 175 4.3 8.7 0.00 0.00 0.00 88 1006.6
20260505081518 69 201 3.5 8.7 0.00 0.00 0.00 88 1006.8
20260505080014 69 175 1.7 6.1 0.00 0.00 0.00 88 1006.9
20260505074513 69 142 1.7 7.0 0.00 0.00 0.00 88 1007.1
20260505073012 69 87 1.7 6.1 0.00 0.00 0.00 88 1007.3
20260505071523 69 83 3.5 6.1 0.00 0.00 0.00 88 1007.5
20260505070007 69 183 2.6 6.1 0.00 0.00 0.00 88 1007.7
20260505064511 69 158 1.7 5.2 0.00 0.00 0.00 88 1007.9
20260505063009 69 142 1.7 7.0 0.00 0.00 0.00 87 1008.1
20260505061505 70 227 2.6 7.0 0.00 0.00 0.00 87 1008.2
20260505054559 70 187 2.6 6.1 0.00 0.00 0.00 87 1008.2
20260505053105 70 195 2.6 7.0 0.00 0.00 0.00 86 1008.3
20260505051555 70 180 1.7 5.2 0.00 0.00 0.00 85 1008.4
20260505041553 70 148 0.9 4.3 0.00 0.00 0.00 81 1008.3
20260505040051 70 106 0.9 3.5 0.00 0.00 0.00 80 1008.3
20260505034549 70 131 0.0 2.6 0.00 0.00 0.00 79 1008.2
20260505033049 71 126 0.9 3.5 0.00 0.00 0.00 78 1008.2
20260505031548 71 88 0.0 0.0 0.00 0.00 0.00 78 1008.2
20260505030048 71 102 0.0 0.0 0.00 0.00 0.00 77 1008.1
20260505024547 71 137 0.0 1.7 0.00 0.00 0.00 77 1008.1
20260505023051 72 97 0.9 2.6 0.00 0.00 0.00 76 1008.2
20260505021545 72 147 0.9 3.5 0.00 0.00 0.00 75 1008.1
20260505020045 73 134 0.0 2.6 0.00 0.00 0.00 74 1008.1
20260505014545 73 183 0.9 4.3 0.00 0.00 0.00 73 1008.0
20260505013043 74 170 0.9 4.3 0.00 0.00 0.00 71 1007.8
20260505011550 75 166 3.5 6.1 0.00 0.00 0.00 70 1007.7
20260505010047 76 211 1.7 5.2 0.00 0.00 0.00 69 1007.8
20260505004542 76 195 1.7 7.0 0.00 0.00 0.00 68 1007.9
20260505003040 77 178 3.5 8.7 0.00 0.00 0.00 67 1007.9
20260505001540 78 230 4.3 8.7 0.00 0.00 0.00 65 1007.8
20260505000040 79 189 4.3 10.4 0.00 0.00 0.00 64 1007.8
20260504234539 79 156 1.7 10.4 0.00 0.00 0.00 64 1007.7
20260504233042 79 141 3.5 10.4 0.00 0.00 0.00 62 1007.7
20260504231538 79 179 6.1 12.2 0.00 0.00 0.00 61 1008.0
20260504230034 79 181 2.6 11.3 0.00 0.00 0.00 63 1008.1
20260504224532 79 153 5.2 13.9 0.00 0.00 0.00 63 1008.5
20260504223031 80 227 5.2 13.9 0.00 0.00 0.00 61 1008.5
20260504221628 80 132 2.6 13.9 0.00 0.00 0.00 61 1008.6
20260504220027 80 197 2.6 10.4 0.00 0.00 0.00 64 1008.7
20260504214526 80 163 4.3 11.3 0.00 0.00 0.00 63 1008.9
20260504213025 80 213 5.2 13.0 0.00 0.00 0.00 61 1009.0
20260504211522 78 178 5.2 13.9 0.00 0.00 0.00 64 1009.2
20260504210024 78 255 6.1 12.2 0.00 0.00 0.00 63 1009.4
20260504204518 79 227 4.3 10.4 0.00 0.00 0.00 64 1009.7
20260504203015 78 229 3.5 12.2 0.00 0.00 0.00 64 1010.0
20260504201513 78 155 6.1 11.3 0.00 0.00 0.00 63 1010.2